����������;��������(kWh)
2018-11-12 00:00;80,8
2018-11-12 00:15;78,8
2018-11-12 00:30;79,95
2018-11-12 00:45;80,3
2018-11-12 01:00;80,55
2018-11-12 01:15;80,05
2018-11-12 01:30;79,55
2018-11-12 01:45;78,35
2018-11-12 02:00;78,35
2018-11-12 02:15;79,3
2018-11-12 02:30;81,6
2018-11-12 02:45;81,3
2018-11-12 03:00;79,1
2018-11-12 03:15;81,8
2018-11-12 03:30;80,5
2018-11-12 03:45;83,4
2018-11-12 04:00;81,05
2018-11-12 04:15;81,75
2018-11-12 04:30;82,15
2018-11-12 04:45;81,35
2018-11-12 05:00;79,65
2018-11-12 05:15;82,3
2018-11-12 05:30;78,65
2018-11-12 05:45;80,35
2018-11-12 06:00;78
2018-11-12 06:15;78,4
2018-11-12 06:30;78,85
2018-11-12 06:45;78,15
2018-11-12 07:00;79,5
2018-11-12 07:15;81,85
2018-11-12 07:30;82,8
2018-11-12 07:45;89,95
2018-11-12 08:00;92,85
2018-11-12 08:15;92,75
2018-11-12 08:30;99,5
2018-11-12 08:45;103
2018-11-12 09:00;108,55
2018-11-12 09:15;109,9
2018-11-12 09:30;115,35
2018-11-12 09:45;124,05
2018-11-12 10:00;114
2018-11-12 10:15;114,75
2018-11-12 10:30;131,2
2018-11-12 10:45;145
2018-11-12 11:00;149,7
2018-11-12 11:15;155,25
2018-11-12 11:30;161,9
2018-11-12 11:45;164,8
2018-11-12 12:00;164,8
2018-11-12 12:15;162,95
2018-11-12 12:30;167,15
2018-11-12 12:45;168
2018-11-12 13:00;163,85
2018-11-12 13:15;166,95
2018-11-12 13:30;168,4
2018-11-12 13:45;166,05
2018-11-12 14:00;164,8
2018-11-12 14:15;170,65
2018-11-12 14:30;168,85
2018-11-12 14:45;162,05
2018-11-12 15:00;155,9
2018-11-12 15:15;153,35
2018-11-12 15:30;155,3
2018-11-12 15:45;149,6
2018-11-12 16:00;145,1
2018-11-12 16:15;143,3
2018-11-12 16:30;135,25
2018-11-12 16:45;129,45
2018-11-12 17:00;130,6
2018-11-12 17:15;126,95
2018-11-12 17:30;123,5
2018-11-12 17:45;127,4
2018-11-12 18:00;126,65
2018-11-12 18:15;124,75
2018-11-12 18:30;121,75
2018-11-12 18:45;124,25
2018-11-12 19:00;125,85
2018-11-12 19:15;118,7
2018-11-12 19:30;117,45
2018-11-12 19:45;121,9
2018-11-12 20:00;120,2
2018-11-12 20:15;115,55
2018-11-12 20:30;116,85
2018-11-12 20:45;112,1
2018-11-12 21:00;107,6
2018-11-12 21:15;102,8
2018-11-12 21:30;104,55
2018-11-12 21:45;93,7
2018-11-12 22:00;92,05
2018-11-12 22:15;87,95
2018-11-12 22:30;88,75
2018-11-12 22:45;85,8
2018-11-12 23:00;86,4
2018-11-12 23:15;83,9
2018-11-12 23:30;82,7
2018-11-12 23:45;86,5
2018-11-13 00:00;81,3
2018-11-13 00:15;81,95
2018-11-13 00:30;81,3
2018-11-13 00:45;82,2
2018-11-13 01:00;82,45
2018-11-13 01:15;82,25
2018-11-13 01:30;80,05
2018-11-13 01:45;81,45
2018-11-13 02:00;81,45
2018-11-13 02:15;80,7
2018-11-13 02:30;82,9
2018-11-13 02:45;81,9
2018-11-13 03:00;84,1
2018-11-13 03:15;84,2
2018-11-13 03:30;84,35
2018-11-13 03:45;84,05
2018-11-13 04:00;84,25
2018-11-13 04:15;81,65
2018-11-13 04:30;83,2
2018-11-13 04:45;84,1
2018-11-13 05:00;85,05
2018-11-13 05:15;80,75
2018-11-13 05:30;81,1
2018-11-13 05:45;81,15
2018-11-13 06:00;80,35
2018-11-13 06:15;80,75
2018-11-13 06:30;80,7
2018-11-13 06:45;79,75
2018-11-13 07:00;78
2018-11-13 07:15;80,35
2018-11-13 07:30;80,65
2018-11-13 07:45;137,7
2018-11-13 08:00;152,45
2018-11-13 08:15;109,75
2018-11-13 08:30;104,9
2018-11-13 08:45;115
2018-11-13 09:00;119,85
2018-11-13 09:15;132,15
2018-11-13 09:30;146,4
2018-11-13 09:45;156,7
2018-11-13 10:00;182,65
2018-11-13 10:15;176,75
2018-11-13 10:30;175,95
2018-11-13 10:45;169,1
2018-11-13 11:00;156,85
2018-11-13 11:15;164,05
2018-11-13 11:30;167,15
2018-11-13 11:45;170,1
2018-11-13 12:00;168,25
2018-11-13 12:15;164,35
2018-11-13 12:30;170,35
2018-11-13 12:45;171,7
2018-11-13 13:00;178,2
2018-11-13 13:15;199
2018-11-13 13:30;191,6
2018-11-13 13:45;183,3
2018-11-13 14:00;170,25
2018-11-13 14:15;174,7
2018-11-13 14:30;174,55
2018-11-13 14:45;201,5
2018-11-13 15:00;176,65
2018-11-13 15:15;168,3
2018-11-13 15:30;156,8
2018-11-13 15:45;153,45
2018-11-13 16:00;145,75
2018-11-13 16:15;151,2
2018-11-13 16:30;144,5
2018-11-13 16:45;150,25
2018-11-13 17:00;151,35
2018-11-13 17:15;148,45
2018-11-13 17:30;147,7
2018-11-13 17:45;151,3
2018-11-13 18:00;150,85
2018-11-13 18:15;152,15
2018-11-13 18:30;176,6
2018-11-13 18:45;168,65
2018-11-13 19:00;148,1
2018-11-13 19:15;128,1
2018-11-13 19:30;125,05
2018-11-13 19:45;120,05
2018-11-13 20:00;121,1
2018-11-13 20:15;139,1
2018-11-13 20:30;128,1
2018-11-13 20:45;125
2018-11-13 21:00;117,1
2018-11-13 21:15;115,9
2018-11-13 21:30;115,7
2018-11-13 21:45;104,3
2018-11-13 22:00;103,3
2018-11-13 22:15;100,7
2018-11-13 22:30;101,15
2018-11-13 22:45;98,2
2018-11-13 23:00;99,3
2018-11-13 23:15;92,5
2018-11-13 23:30;89,1
2018-11-13 23:45;89,2
2018-11-14 00:00;86,55
2018-11-14 00:15;86,1
2018-11-14 00:30;84,25
2018-11-14 00:45;93,55
2018-11-14 01:00;89,5
2018-11-14 01:15;89,9
2018-11-14 01:30;88,7
2018-11-14 01:45;88,55
2018-11-14 02:00;85,15
2018-11-14 02:15;85,3
2018-11-14 02:30;87,45
2018-11-14 02:45;85,25
2018-11-14 03:00;85,25
2018-11-14 03:15;86,9
2018-11-14 03:30;88,1
2018-11-14 03:45;88,55
2018-11-14 04:00;89,6
2018-11-14 04:15;85,95
2018-11-14 04:30;87,65
2018-11-14 04:45;87,95
2018-11-14 05:00;89,65
2018-11-14 05:15;88,35
2018-11-14 05:30;86,55
2018-11-14 05:45;91,2
2018-11-14 06:00;85,8
2018-11-14 06:15;94,1
2018-11-14 06:30;114,75
2018-11-14 06:45;115
2018-11-14 07:00;109,1
2018-11-14 07:15;105,4
2018-11-14 07:30;106,15
2018-11-14 07:45;155,75
2018-11-14 08:00;168,15
2018-11-14 08:15;137,4
2018-11-14 08:30;126,3
2018-11-14 08:45;156
2018-11-14 09:00;137,75
2018-11-14 09:15;160,3
2018-11-14 09:30;153,85
2018-11-14 09:45;175,7
2018-11-14 10:00;168,55
2018-11-14 10:15;182,5
2018-11-14 10:30;176,05
2018-11-14 10:45;195,65
2018-11-14 11:00;177,75
2018-11-14 11:15;193,25
2018-11-14 11:30;185,35
2018-11-14 11:45;198,2
2018-11-14 12:00;190,6
2018-11-14 12:15;202,4
2018-11-14 12:30;192,55
2018-11-14 12:45;192,35
2018-11-14 13:00;185,35
2018-11-14 13:15;194,55
2018-11-14 13:30;196,5
2018-11-14 13:45;184,4
2018-11-14 14:00;190,15
2018-11-14 14:15;174,75
2018-11-14 14:30;196,15
2018-11-14 14:45;173,3
2018-11-14 15:00;192,8
2018-11-14 15:15;177,6
2018-11-14 15:30;189,75
2018-11-14 15:45;174
2018-11-14 16:00;169,9
2018-11-14 16:15;165,1
2018-11-14 16:30;160,35
2018-11-14 16:45;163,4
2018-11-14 17:00;166,5
2018-11-14 17:15;154,35
2018-11-14 17:30;150,8
2018-11-14 17:45;150,5
2018-11-14 18:00;156,65
2018-11-14 18:15;143,25
2018-11-14 18:30;150,55
2018-11-14 18:45;153,15
2018-11-14 19:00;158,55
2018-11-14 19:15;154,7
2018-11-14 19:30;150,25
2018-11-14 19:45;147,95
2018-11-14 20:00;135,8
2018-11-14 20:15;125,95
2018-11-14 20:30;123,5
2018-11-14 20:45;117,95
2018-11-14 21:00;117,35
2018-11-14 21:15;113,3
2018-11-14 21:30;112,9
2018-11-14 21:45;106,9
2018-11-14 22:00;103,8
2018-11-14 22:15;96,2
2018-11-14 22:30;93,5
2018-11-14 22:45;97
2018-11-14 23:00;92,7
2018-11-14 23:15;93,45
2018-11-14 23:30;91,05
2018-11-14 23:45;95,95
2018-11-15 00:00;90,8
2018-11-15 00:15;90,55
2018-11-15 00:30;92
2018-11-15 00:45;90,35
2018-11-15 01:00;96,45
2018-11-15 01:15;97,3
2018-11-15 01:30;97,8
2018-11-15 01:45;97,9
2018-11-15 02:00;97,65
2018-11-15 02:15;98,45
2018-11-15 02:30;95,65
2018-11-15 02:45;92,85
2018-11-15 03:00;95,4
2018-11-15 03:15;93,1
2018-11-15 03:30;96,7
2018-11-15 03:45;95,75
2018-11-15 04:00;95,05
2018-11-15 04:15;95,1
2018-11-15 04:30;91,9
2018-11-15 04:45;94,35
2018-11-15 05:00;93,05
2018-11-15 05:15;98,35
2018-11-15 05:30;92,55
2018-11-15 05:45;100,25
2018-11-15 06:00;99,45
2018-11-15 06:15;97,1
2018-11-15 06:30;101,9
2018-11-15 06:45;122
2018-11-15 07:00;135,6
2018-11-15 07:15;130,15
2018-11-15 07:30;128,15
2018-11-15 07:45;180,7
2018-11-15 08:00;184,1
2018-11-15 08:15;128,5
2018-11-15 08:30;139,75
2018-11-15 08:45;133,9
2018-11-15 09:00;152,05
2018-11-15 09:15;149,9
2018-11-15 09:30;176,1
2018-11-15 09:45;167,8
2018-11-15 10:00;184,55
2018-11-15 10:15;171,55
2018-11-15 10:30;187,3
2018-11-15 10:45;173,1
2018-11-15 11:00;190,15
2018-11-15 11:15;184,45
2018-11-15 11:30;192,2
2018-11-15 11:45;183,5
2018-11-15 12:00;180,65
2018-11-15 12:15;181,05
2018-11-15 12:30;182,15
2018-11-15 12:45;194,85
2018-11-15 13:00;191
2018-11-15 13:15;207,05
2018-11-15 13:30;200,15
2018-11-15 13:45;213,35
2018-11-15 14:00;204,15
2018-11-15 14:15;211,55
2018-11-15 14:30;198,6
2018-11-15 14:45;205,85
2018-11-15 15:00;185,75
2018-11-15 15:15;193,95
2018-11-15 15:30;173,1
2018-11-15 15:45;165,5
2018-11-15 16:00;163,5
2018-11-15 16:15;158,85
2018-11-15 16:30;158,5
2018-11-15 16:45;153,75
2018-11-15 17:00;157,2
2018-11-15 17:15;150,45
2018-11-15 17:30;155,45
2018-11-15 17:45;156,25
2018-11-15 18:00;158,5
2018-11-15 18:15;155,15
2018-11-15 18:30;154,05
2018-11-15 18:45;146,7
2018-11-15 19:00;148
2018-11-15 19:15;143,5
2018-11-15 19:30;144
2018-11-15 19:45;144,15
2018-11-15 20:00;145,7
2018-11-15 20:15;129,95
2018-11-15 20:30;115,85
2018-11-15 20:45;113,5
2018-11-15 21:00;110,45
2018-11-15 21:15;104,55
2018-11-15 21:30;101,25
2018-11-15 21:45;98,05
2018-11-15 22:00;97,8
2018-11-15 22:15;98,8
2018-11-15 22:30;93,75
2018-11-15 22:45;92,65
2018-11-15 23:00;92,9
2018-11-15 23:15;88,3
2018-11-15 23:30;89,3
2018-11-15 23:45;91,65
2018-11-16 00:00;90,15
2018-11-16 00:15;86,5
2018-11-16 00:30;85,15
2018-11-16 00:45;87,35
2018-11-16 01:00;86,2
2018-11-16 01:15;86,6
2018-11-16 01:30;92
2018-11-16 01:45;96,55
2018-11-16 02:00;98,1
2018-11-16 02:15;98,4
2018-11-16 02:30;101,4
2018-11-16 02:45;100,35
2018-11-16 03:00;97,5
2018-11-16 03:15;95,4
2018-11-16 03:30;97,8
2018-11-16 03:45;120,2
2018-11-16 04:00;126,6
2018-11-16 04:15;119,65
2018-11-16 04:30;111,7
2018-11-16 04:45;105,9
2018-11-16 05:00;104,9
2018-11-16 05:15;101,5
2018-11-16 05:30;100,5
2018-11-16 05:45;100,65
2018-11-16 06:00;100,6
2018-11-16 06:15;99,05
2018-11-16 06:30;100,85
2018-11-16 06:45;97,8
2018-11-16 07:00;96,7
2018-11-16 07:15;104,85
2018-11-16 07:30;105,55
2018-11-16 07:45;161,9
2018-11-16 08:00;180,7
2018-11-16 08:15;151,1
2018-11-16 08:30;126,45
2018-11-16 08:45;152,35
2018-11-16 09:00;142,45
2018-11-16 09:15;161,2
2018-11-16 09:30;147,8
2018-11-16 09:45;162,8
2018-11-16 10:00;171,45
2018-11-16 10:15;176,75
2018-11-16 10:30;175,2
2018-11-16 10:45;176,35
2018-11-16 11:00;191,85
2018-11-16 11:15;193,1
2018-11-16 11:30;214,8
2018-11-16 11:45;205,85
2018-11-16 12:00;221,3
2018-11-16 12:15;206,5
2018-11-16 12:30;212,45
2018-11-16 12:45;196,35
2018-11-16 13:00;209,75
2018-11-16 13:15;199,85
2018-11-16 13:30;216,4
2018-11-16 13:45;204,3
2018-11-16 14:00;210,7
2018-11-16 14:15;199,85
2018-11-16 14:30;201,15
2018-11-16 14:45;205,3
2018-11-16 15:00;194,55
2018-11-16 15:15;201,35
2018-11-16 15:30;181,25
2018-11-16 15:45;174,15
2018-11-16 16:00;167,25
2018-11-16 16:15;161,15
2018-11-16 16:30;165,65
2018-11-16 16:45;160,7
2018-11-16 17:00;165,2
2018-11-16 17:15;160,4
2018-11-16 17:30;162,65
2018-11-16 17:45;158,5
2018-11-16 18:00;160,95
2018-11-16 18:15;150,8
2018-11-16 18:30;144,65
2018-11-16 18:45;138,3
2018-11-16 19:00;138,8
2018-11-16 19:15;134,55
2018-11-16 19:30;134,2
2018-11-16 19:45;127,45
2018-11-16 20:00;130,6
2018-11-16 20:15;124,3
2018-11-16 20:30;119,15
2018-11-16 20:45;118,45
2018-11-16 21:00;118,75
2018-11-16 21:15;115,05
2018-11-16 21:30;110,4
2018-11-16 21:45;96,45
2018-11-16 22:00;91,7
2018-11-16 22:15;92,25
2018-11-16 22:30;91,4
2018-11-16 22:45;89,8
2018-11-16 23:00;89,65
2018-11-16 23:15;87,1
2018-11-16 23:30;86,35
2018-11-16 23:45;87,45
2018-11-17 00:00;84,45
2018-11-17 00:15;85,65
2018-11-17 00:30;83,5
2018-11-17 00:45;83,5
2018-11-17 01:00;91,45
2018-11-17 01:15;91,35
2018-11-17 01:30;91,05
2018-11-17 01:45;90,6
2018-11-17 02:00;92,6
2018-11-17 02:15;90,75
2018-11-17 02:30;92,6
2018-11-17 02:45;94,15
2018-11-17 03:00;93,3
2018-11-17 03:15;95,1
2018-11-17 03:30;87,7
2018-11-17 03:45;87
2018-11-17 04:00;86,3
2018-11-17 04:15;84,8
2018-11-17 04:30;88,15
2018-11-17 04:45;84,85
2018-11-17 05:00;85,15
2018-11-17 05:15;82,55
2018-11-17 05:30;83,65
2018-11-17 05:45;81,4
2018-11-17 06:00;81,25
2018-11-17 06:15;82
2018-11-17 06:30;81,4
2018-11-17 06:45;80,2
2018-11-17 07:00;81,5
2018-11-17 07:15;76,1
2018-11-17 07:30;76,9
2018-11-17 07:45;77,55
2018-11-17 08:00;78,85
2018-11-17 08:15;82,2
2018-11-17 08:30;81,55
2018-11-17 08:45;82,45
2018-11-17 09:00;81,8
2018-11-17 09:15;81,7
2018-11-17 09:30;82,05
2018-11-17 09:45;81,75
2018-11-17 10:00;79,8
2018-11-17 10:15;81,7
2018-11-17 10:30;79,05
2018-11-17 10:45;84,15
2018-11-17 11:00;85,3
2018-11-17 11:15;87,45
2018-11-17 11:30;84,7
2018-11-17 11:45;86,55
2018-11-17 12:00;86,9
2018-11-17 12:15;86,2
2018-11-17 12:30;88,4
2018-11-17 12:45;83,4
2018-11-17 13:00;84,95
2018-11-17 13:15;87,1
2018-11-17 13:30;84,8
2018-11-17 13:45;82,7
2018-11-17 14:00;83,95
2018-11-17 14:15;86,1
2018-11-17 14:30;82,85
2018-11-17 14:45;83,95
2018-11-17 15:00;83,35
2018-11-17 15:15;86,15
2018-11-17 15:30;85
2018-11-17 15:45;85,2
2018-11-17 16:00;83
2018-11-17 16:15;85,25
2018-11-17 16:30;91,3
2018-11-17 16:45;93,85
2018-11-17 17:00;91,9
2018-11-17 17:15;92,5
2018-11-17 17:30;96,7
2018-11-17 17:45;94,7
2018-11-17 18:00;96,3
2018-11-17 18:15;97,45
2018-11-17 18:30;98,75
2018-11-17 18:45;99,65
2018-11-17 19:00;94,95
2018-11-17 19:15;93,65
2018-11-17 19:30;91,95
2018-11-17 19:45;91,05
2018-11-17 20:00;93
2018-11-17 20:15;92,35
2018-11-17 20:30;93,15
2018-11-17 20:45;92
2018-11-17 21:00;89,8
2018-11-17 21:15;88,8
2018-11-17 21:30;87,65
2018-11-17 21:45;86,8
2018-11-17 22:00;84,7
2018-11-17 22:15;86,45
2018-11-17 22:30;85,5
2018-11-17 22:45;85,6
2018-11-17 23:00;86,65
2018-11-17 23:15;84,35
2018-11-17 23:30;85,25
2018-11-17 23:45;86,4
2018-11-18 00:00;83,75
2018-11-18 00:15;82,05
2018-11-18 00:30;81,85
2018-11-18 00:45;83,85
2018-11-18 01:00;81,6
2018-11-18 01:15;85,95
2018-11-18 01:30;82,85
2018-11-18 01:45;81,5
2018-11-18 02:00;82,2
2018-11-18 02:15;80,85
2018-11-18 02:30;84
2018-11-18 02:45;81,95
2018-11-18 03:00;82,65
2018-11-18 03:15;83,25
2018-11-18 03:30;82,55
2018-11-18 03:45;86,45
2018-11-18 04:00;83,85
2018-11-18 04:15;83,95
2018-11-18 04:30;82,65
2018-11-18 04:45;84,2
2018-11-18 05:00;85,1
2018-11-18 05:15;80,35
2018-11-18 05:30;80,15
2018-11-18 05:45;79,05
2018-11-18 06:00;81,6
2018-11-18 06:15;83
2018-11-18 06:30;85,85
2018-11-18 06:45;85,15
2018-11-18 07:00;84,25
2018-11-18 07:15;85,25
2018-11-18 07:30;81,45
2018-11-18 07:45;85,15
2018-11-18 08:00;85,7
2018-11-18 08:15;84,95
2018-11-18 08:30;80,75
2018-11-18 08:45;76,35
2018-11-18 09:00;77,6
2018-11-18 09:15;76,05
2018-11-18 09:30;76,05
2018-11-18 09:45;73,95
2018-11-18 10:00;73,55
2018-11-18 10:15;73,95
2018-11-18 10:30;75,2
2018-11-18 10:45;81,85
2018-11-18 11:00;82,5
2018-11-18 11:15;85,6
2018-11-18 11:30;84,7
2018-11-18 11:45;85,05
2018-11-18 12:00;83,7
2018-11-18 12:15;85,8
2018-11-18 12:30;86,2
2018-11-18 12:45;82,45
2018-11-18 13:00;82,1
2018-11-18 13:15;85,45
2018-11-18 13:30;82,15
2018-11-18 13:45;84,55
2018-11-18 14:00;83,8
2018-11-18 14:15;85,45
2018-11-18 14:30;91,15
2018-11-18 14:45;92,75
2018-11-18 15:00;97,65
2018-11-18 15:15;98,8
2018-11-18 15:30;94,6
2018-11-18 15:45;90,25
2018-11-18 16:00;91,65
2018-11-18 16:15;92,3
2018-11-18 16:30;89,5
2018-11-18 16:45;85
2018-11-18 17:00;84,45
2018-11-18 17:15;83,75
2018-11-18 17:30;85,6
2018-11-18 17:45;95,85
2018-11-18 18:00;91,1
2018-11-18 18:15;91,2
2018-11-18 18:30;93,55
2018-11-18 18:45;93,95
2018-11-18 19:00;97,95
2018-11-18 19:15;94
2018-11-18 19:30;94,3
2018-11-18 19:45;94,6
2018-11-18 20:00;93,25
2018-11-18 20:15;95,85
2018-11-18 20:30;95,85
2018-11-18 20:45;97
2018-11-18 21:00;94,55
2018-11-18 21:15;93,2
2018-11-18 21:30;93,55
2018-11-18 21:45;90,05
2018-11-18 22:00;89,35
2018-11-18 22:15;88,8
2018-11-18 22:30;88,7
2018-11-18 22:45;86,95
2018-11-18 23:00;87,75
2018-11-18 23:15;85,4
2018-11-18 23:30;83,8
2018-11-18 23:45;87,05

